Location: Dötzum
(52.0808°N, 9.8063°E)
Time: 00:23:24
(UTC+00:00)

Daily predictions for brighter satellites

Satellite Brightness Start Highest point End
(mag) Time Altitude Azimuth Time Altitude Azimuth Time Altitude Azimuth
USA 32 4.3 00:02:26 23° SSE 00:05:40 64° E 00:10:53 10° NNE
SL-16 R/B 3.9 00:02:19 12° SE 00:05:49 22° E 00:10:00 10° NE
Cosmos 2322 Rocket 4.3 00:03:53 10° W 00:08:19 23° NW 00:12:47 10° NNE
USA 306 3.4 00:07:12 31° S 00:08:24 38° SE 00:12:17 10° ENE
Lacrosse 5 3.4 00:07:00 18° SSE 00:08:35 20° SE 00:12:17 10° E
SL-16 R/B 3.6 00:02:51 10° SE 00:08:37 42° ENE 00:14:27 10° N
Cosmos 1980 3.9 00:06:07 25° S 00:09:23 61° ESE 00:14:57 10° NE
Cosmos 371 Rocket 3.3 00:06:52 27° S 00:09:29 73° ESE 00:14:20 10° NNE
Cosmos 1461 4.5 00:06:50 10° WNW 00:09:51 19° WSW 00:10:09 19° WSW
Cosmos 2322 4.4 00:07:23 14° SW 00:12:07 52° NW 00:17:45 10° NNE
USA 307 3.5 00:11:14 30° S 00:12:25 37° SE 00:16:17 10° ENE
Cosmos 2333 Rocket 3.3 00:07:20 10° WSW 00:12:39 41° NW 00:18:02 10° NNE
Meteor 2-10 Rocket 3.7 00:07:08 10° NNW 00:12:53 82° ENE 00:16:52 19° SSE
ATLAS CENTAUR R/B 3.9 00:12:25 10° W 00:13:21 11° WSW 00:13:50 10° WSW
Cosmos 1269 Rocket 4.3 00:09:44 10° NNW 00:15:01 67° ENE 00:20:15 10° SE
ASTEX 1 4.1 00:10:30 10° N 00:15:10 45° WNW 00:18:02 21° SW
Cosmos 1709 Rocket 3.9 00:09:06 10° NNW 00:15:17 84° W 00:19:32 21° S
Cosmos 304 Rocket 4.1 00:15:45 25° S 00:18:22 57° ESE 00:23:07 10° NNE
USA 267 3.9 00:17:02 21° S 00:20:29 33° SW 00:26:20 10° WNW
Cosmos 2315 Rocket 4.1 00:18:32 21° S 00:22:57 77° E 00:29:21 10° NNE
USA 229 DEB 4.3 00:18:26 10° NW 00:25:17 43° WSW 00:30:40 18° S
USA 229 4.3 00:18:32 10° NW 00:25:23 44° WSW 00:30:48 18° S
Cosmos 1674 Rocket 4.2 00:23:08 23° SW 00:25:29 43° WNW 00:29:38 10° N
S3M 4.2 00:24:09 21° SSW 00:28:29 64° WNW 00:34:49 10° N
Meteor 1-24 Rocket 4.5 00:25:27 15° SSE 00:29:38 43° E 00:34:45 10° NNE
Cosmos 1455 3.6 00:26:56 10° N 00:30:20 33° ENE 00:33:43 10° SE
Cosmos 2219 Rocket 3.3 00:26:32 10° WSW 00:31:44 38° NW 00:36:58 10° NNE
Cosmos 2150 Rocket 4.1 00:32:32 22° SW 00:35:57 70° WNW 00:41:08 10° NNE
CZ-2D R/B 3.0 00:31:40 10° NNE 00:36:46 41° E 00:40:53 15° SSE
MOZ.5/SAFIR/RUBIN 5/SL-8 3.8 00:34:54 21° S 00:38:02 72° WSW 00:42:49 10° NNW
Cosmos 1455 Rocket 3.0 00:35:02 10° NNW 00:39:32 80° W 00:42:28 21° S
Cosmos 1300 3.3 00:38:45 10° NNW 00:42:19 39° W 00:43:56 25° SW
USA 308 3.0 00:40:45 24° SW 00:43:00 53° SSE 00:47:05 10° ENE
USA 290 4.4 00:43:29 12° W 00:45:40 20° NW 00:48:10 10° N
Cosmos 1125 Rocket 3.9 00:43:32 19° SW 00:47:13 57° WNW 00:52:23 10° NNE
NOSS 0 Rocket 4.2 00:45:01 17° SW 00:49:55 68° NW 00:56:11 10° NNE
Meteor 2-5 Rocket 3.8 00:50:14 18° S 00:54:34 76° E 01:00:14 10° NNE
SL-14 R/B 4.3 00:53:24 19° SW 00:55:33 33° WNW 00:59:06 10° N
CZ-4C R/B 4.2 00:50:07 10° WNW 00:55:39 23° WSW 00:59:24 17° SW
ERBS 2.0 00:55:13 29° SW 00:56:32 62° SSE 00:59:34 10° ENE
Cosmos 1975 Rocket 3.1 00:56:40 21° SSW 00:59:33 75° WNW 01:04:03 10° N
Cosmos 2237 Rocket 2.4 00:56:44 18° SW 01:01:06 68° NW 01:06:49 10° NNE
Resurs 1-4 Rocket 2.3 00:57:29 10° NNE 01:02:46 67° ESE 01:07:01 16° S
Cosmos 1025 Rocket 3.0 01:00:08 21° SSW 01:03:01 84° WNW 01:07:21 10° N
USA-17 4.4 01:02:08 10° NW 01:05:20 86° NE 01:09:18 10° SE
COSMOS 2428 4.1 01:00:31 10° WSW 01:05:37 33° NW 01:10:45 10° NNE
USA 305 2.8 01:02:26 16° WSW 01:05:44 76° SSE 01:09:54 10° ENE
SME Rocket 3.7 01:03:28 20° SSW 01:06:09 48° W 01:11:26 10° NNW
Gblst 52 Del rocket 4.1 01:01:41 10° W 01:07:38 86° S 01:13:10 10° E
CZ-4 R/B 3.9 01:04:54 10° NNE 01:09:35 73° ESE 01:13:13 16° S
Cosmos 332 Rocket 4.0 01:08:19 18° SW 01:11:48 64° WNW 01:16:35 10° NNE
Cosmos 1943 Rocket 2.3 01:07:39 10° NW 01:13:14 58° WSW 01:18:46 10° S
YAOGAN 11 4.2 01:09:56 10° SSE 01:14:23 86° ENE 01:18:57 10° NNW
IDEFIX/ARIANE 42P 3.6 01:10:41 10° NNE 01:15:41 41° E 01:20:39 10° SSE
ADEOS II 2.8 01:11:28 10° NNE 01:16:35 49° E 01:21:40 10° S
GP-B 4.1 01:12:35 10° NNW 01:16:36 34° WNW 01:19:29 17° SW
Lacrosse 5 rocket 2.3 01:14:37 18° S 01:16:48 31° SE 01:20:25 10° ENE
Cosmos 614 Rocket 4.0 01:13:04 10° NNW 01:18:18 85° WSW 01:23:31 10° SSE
Cosmos 2297 3.7 01:13:21 10° NW 01:19:03 66° WSW 01:24:44 10° SSE
Thor Agena Rocket 4.0 01:14:55 10° N 01:20:05 56° WNW 01:24:18 15° SW
UNK 3.7 01:15:35 10° SSE 01:20:11 81° WSW 01:24:51 10° NNW
USA 215 3.8 01:19:13 10° ENE 01:25:40 61° N 01:32:06 10° W
Cosmos 1544 Rocket 3.8 01:21:41 10° NNW 01:26:00 52° W 01:29:31 15° SSW
Cosmos 2278 Rocket 3.9 01:25:08 10° WNW 01:28:15 15° W 01:30:39 12° SW
Cosmos 1703 4.3 01:24:57 10° SSE 01:28:39 41° E 01:32:23 10° NNE
Cosmos 2251 Rocket 3.7 01:24:00 10° NNW 01:29:17 78° ENE 01:34:35 10° SSE
Cosmos 2154 Rocket 4.0 01:23:48 10° N 01:30:12 85° W 01:36:31 10° S
Helios 1A 3.1 01:26:24 10° SSE 01:30:36 80° ENE 01:34:51 10° NNW
EO 1 Del DPAF 3.9 01:29:33 10° NNE 01:32:56 43° E 01:36:18 10° S
NPP 3.7 01:31:13 10° NNE 01:36:39 83° WNW 01:41:35 12° SSW
MOS 1 Rocket 3.1 01:33:18 10° S 01:37:32 64° W 01:41:52 10° NNW
Cosmos 2369 Rocket 2.1 01:36:48 10° NNW 01:42:26 81° WSW 01:48:01 10° SSE
Cosmos 1656 Rocket 3.6 01:40:23 10° NNW 01:45:51 89° ENE 01:51:17 10° SSE
USA 306 2.9 01:43:36 10° WSW 01:47:47 81° NNW 01:51:59 10° ENE
SL-16 R/B 2.3 01:44:11 13° SW 01:49:19 79° WNW 01:55:02 10° NNE
Cosmos 1726 Rocket 4.4 01:46:08 10° N 01:50:31 53° ENE 01:54:49 10° SSE
Meteor 1-28 Rocket 3.3 01:46:53 10° S 01:50:34 58° W 01:54:15 10° NNW
Lacrosse 5 1.9 01:46:10 12° SW 01:50:54 73° SSE 01:56:00 10° ENE
USA 307 2.9 01:47:38 10° WSW 01:51:50 83° NNW 01:56:02 10° ENE
SL-16 R/B 2.9 01:46:17 10° S 01:52:13 45° W 01:58:12 10° NNW
Cosmos 2074 Rocket 4.5 01:47:01 10° NNW 01:52:57 45° W 01:58:53 10° SSW
Cosmos 2084 Rocket 3.6 01:56:11 10° WSW 01:59:56 54° NW 02:03:42 10° NE
AQUA 4.0 01:55:28 10° N 02:00:12 64° WNW 02:04:54 10° SSW
Cosmos 1455 3.5 02:02:42 10° NW 02:05:40 23° W 02:08:35 10° SW
Cosmos 2228 3.3 02:08:55 10° NNW 02:13:10 52° W 02:17:22 10° S
Cosmos 407 Rocket 3.5 02:07:53 10° NNW 02:13:15 82° WSW 02:18:31 10° SSE
Cosmos 1271 Rocket 3.6 02:10:27 10° NNW 02:13:53 32° W 02:17:21 10° SSW
COSMOS 2455 2.9 02:08:55 10° SW 02:14:57 87° SE 02:21:02 10° NE
Cosmos 2218 Rocket 4.3 02:08:57 10° N 02:15:13 75° ENE 02:21:31 10° SSE
CZ-2D R/B 3.0 02:11:50 10° N 02:16:47 38° WNW 02:21:38 10° SW
ATLAS 2AS CENTAUR R/B 4.3 02:13:38 10° NW 02:20:35 41° NNE 02:27:05 10° E
Cosmos 1140 Rocket 3.5 02:16:12 10° NNW 02:21:27 69° WSW 02:26:39 10° SSE
USA 308 3.1 02:18:24 10° W 02:22:35 71° N 02:26:47 10° ENE
MSX 3.9 02:18:14 10° NNE 02:24:01 80° WNW 02:29:48 10° SSW
NOSS 3-4 (A) 4.2 02:18:39 10° NW 02:25:22 72° NE 02:33:01 10° SE
NOSS 3-4 (C) 4.2 02:18:44 10° NW 02:25:26 71° NE 02:33:03 10° SE
Cosmos 2058 Rocket 3.3 02:23:44 10° N 02:28:09 74° ENE 02:32:30 10° SSE
Cosmos 292 Rocket 4.1 02:26:01 10° SW 02:30:46 58° WNW 02:35:31 10° NNE
